This demonstration page uses our WeatherBlox Daily Observations layout. Learn more.

Left ArrowRight Arrow

40.92945, -100.16068

Hourly Observations for October 14, 2016

Temp ( °F °C ) Dew Point ( °F °C ) Humidity (%) Winds ( mph kmh ) Pressure ( in mb ) Visibility ( mi km ) Precip ( " mm )
12:15 am 00:15 Clear 45 7 38 3.1 76 76 SSE 9 15 30.09 1019 10 16 N/A
12:35 am 00:35 Clear 45 7 38 3.1 76 76 SSE 9 15 30.09 1019 10 16 N/A
12:55 am 00:55 Clear 44 6.6 38 3.2 79 79 SSE 8 13 30.09 1019 10 16 N/A
1:15 am 01:15 Clear 44 6.5 38 3.1 79 79 S 7 11 30.09 1019 10 16 N/A
1:35 am 01:35 Clear 43 6 37 3 81 81 SSE 7 11 30.09 1019 10 16 N/A
1:55 am 01:55 Clear 43 5.9 37 3 82 82 SSE 7 11 30.09 1019 10 16 N/A
2:15 am 02:15 Clear 42 5.5 37 3 84 84 SSE 8 13 30.09 1019 10 16 N/A
2:35 am 02:35 Clear 42 5.5 37 2.9 84 84 SSE 7 11 30.09 1019 10 16 N/A
2:55 am 02:55 Clear 41 5.2 37 2.9 85 85 SSE 7 11 30.09 1019 10 16 N/A
3:15 am 03:15 Clear 41 5.2 37 3 86 86 SSE 8 13 30.09 1019 10 16 N/A
3:35 am 03:35 Clear 41 5 37 2.9 86 86 SSE 7 11 30.06 1018 10 16 N/A
3:55 am 03:55 Clear 42 5.3 38 3.1 86 86 S 7 11 30.06 1018 10 16 N/A
4:15 am 04:15 Clear 41 5.1 38 3.1 87 87 SSE 7 11 30.06 1018 10 16 N/A
4:35 am 04:35 Clear 42 5.6 38 3.4 86 86 S 9 15 30.06 1018 10 16 N/A
4:55 am 04:55 Clear 43 6.3 39 3.7 84 84 S 9 15 30.03 1017 10 16 N/A
5:15 am 05:15 Clear 43 6.1 38 3.6 84 84 S 9 15 30.03 1017 10 16 N/A
5:35 am 05:35 Clear 43 6 38 3.5 84 84 S 9 15 30.03 1017 10 16 N/A
5:55 am 05:55 Clear 42 5.6 38 3.3 85 85 S 12 19 30.03 1017 10 16 N/A
6:15 am 06:15 Clear 42 5.6 38 3.3 85 85 S 12 19 30.03 1017 10 16 N/A
6:35 am 06:35 Clear 41 5.1 37 3 86 86 SSE 5 7 30.03 1017 10 16 N/A
6:55 am 06:55 Clear 41 4.8 37 3 88 88 S 6 9 30.03 1017 10 16 N/A
7:15 am 07:15 Clear 40 4.7 37 3 89 89 S 6 9 30.03 1017 10 16 N/A
7:35 am 07:35 Clear 41 4.8 37 3 88 88 S 8 13 30.00 1016 10 16 N/A
7:55 am 07:55 Sunny 40 4.6 37 3 89 89 S 8 13 30.00 1016 10 16 N/A
8:15 am 08:15 Sunny 41 5 38 3.3 89 89 S 10 17 30.00 1016 10 16 N/A
8:35 am 08:35 Sunny 42 5.5 38 3.6 88 88 S 10 17 30.00 1016 10 16 N/A
8:55 am 08:55 Sunny 43 6.2 39 4 86 86 S 8 13 29.97 1015 10 16 N/A
9:15 am 09:15 Sunny 45 7.1 40 4.5 84 84 S 7 11 29.97 1015 10 16 N/A
9:35 am 09:35 Sunny 47 8.1 41 5 81 81 S 9 15 29.97 1015 10 16 N/A
9:55 am 09:55 Sunny 48 9 42 5.4 78 78 S 10 17 29.97 1015 10 16 N/A
10:15 am 10:15 Sunny 50 9.9 42 5.7 75 75 S 9 15 29.94 1014 10 16 N/A
10:35 am 10:35 Sunny 52 11 43 6.1 72 72 S 12 19 29.94 1014 10 16 N/A
10:55 am 10:55 Sunny 53 11.7 43 6.3 70 70 S 12 19 29.94 1014 10 16 N/A
11:15 am 11:15 Sunny 53 11.8 44 6.6 71 71 SSE 13 20 29.94 1014 10 16 N/A
11:35 am 11:35 Sunny 56 13.2 44 6.9 66 66 S 13 20 29.91 1013 10 16 N/A
11:55 am 11:55 Sunny 57 13.9 45 7.4 65 65 S 12 19 29.88 1012 10 16 N/A
12:15 pm 12:15 Sunny 58 14.6 46 7.9 64 64 SSE 13 20 29.88 1012 10 16 N/A
12:35 pm 12:35 Sunny 59 15.1 47 8.2 64 64 SSE 14 22 29.88 1012 10 16 N/A
12:55 pm 12:55 Sunny 60 15.7 47 8.6 63 63 S 10 17 29.85 1011 10 16 N/A
1:15 pm 13:15 Sunny 62 16.6 48 9 61 61 S 14 22 29.85 1011 10 16 N/A
1:35 pm 13:35 Sunny 64 17.9 49 9.5 58 58 S 12 19 29.83 1010 10 16 N/A
1:55 pm 13:55 Sunny 65 18.4 49 9.6 57 57 S 17 28 29.83 1010 10 16 N/A
2:15 pm 14:15 Sunny 67 19.3 50 9.8 54 54 S 17 28 29.77 1008 10 16 N/A
2:35 pm 14:35 Sunny 68 20.2 50 10 52 52 S 17 28 29.74 1007 10 16 N/A
2:55 pm 14:55 Sunny 68 20 50 10 53 53 S 16 26 29.74 1007 10 16 N/A
3:15 pm 15:15 Sunny 69 20.5 50 10 51 51 S 12 19 29.74 1007 10 16 N/A
3:35 pm 15:35 Sunny 71 21.4 50 10.2 49 49 S 15 24 29.68 1005 10 16 N/A
3:55 pm 15:55 Sunny 70 21.2 50 10.2 50 50 S 16 26 29.68 1005 10 16 N/A
4:15 pm 16:15 Sunny 70 21 51 10.4 51 51 S 18 30 29.65 1004 10 16 N/A
4:35 pm 16:35 Sunny 70 21.2 51 10.8 52 52 S 15 24 29.65 1004 10 16 N/A
4:55 pm 16:55 Sunny 70 21.2 51 10.7 51 51 S 20 31 29.65 1004 10 16 N/A
5:15 pm 17:15 Sunny 71 21.5 52 11 51 51 S 15 24 29.65 1004 10 16 N/A
5:35 pm 17:35 Sunny 72 22 52 11.1 50 50 SSE 17 28 29.65 1004 10 16 N/A
5:55 pm 17:55 Sunny 71 21.8 53 11.4 52 52 S 17 28 29.65 1004 10 16 N/A
6:15 pm 18:15 Sunny 71 21.7 53 11.4 52 52 S 15 24 29.65 1004 10 16 N/A
6:35 pm 18:35 Sunny 70 21 53 11.5 55 55 SSE 12 19 29.65 1004 10 16 N/A
6:55 pm 18:55 Sunny 68 20.2 53 11.6 58 58 SE 10 17 29.68 1005 10 16 N/A
7:15 pm 19:15 Clear 67 19.7 53 11.6 60 60 SE 10 17 29.68 1005 10 16 N/A
7:35 pm 19:35 Clear 67 19.3 53 11.9 62 62 SE 10 17 29.68 1005 10 16 N/A
7:55 pm 19:55 Clear 65 18.3 53 11.8 66 66 SE 9 15 29.68 1005 10 16 N/A
8:15 pm 20:15 Clear 65 18.2 53 11.8 66 66 SE 8 13 29.68 1005 10 16 N/A
8:35 pm 20:35 Clear 64 17.9 54 12 69 69 SE 9 15 29.68 1005 10 16 N/A
8:55 pm 20:55 Clear 64 17.7 54 12 69 69 SSE 9 15 29.68 1005 10 16 N/A
9:15 pm 21:15 Clear 63 17.3 54 12.3 73 73 SSE 14 22 29.71 1006 10 16 N/A
9:35 pm 21:35 Clear 63 17.3 55 12.6 74 74 SSE 14 22 29.65 1004 10 16 N/A
9:55 pm 21:55 Clear 64 17.6 55 12.7 73 73 SSE 15 24 29.65 1004 10 16 N/A
10:15 pm 22:15 Clear 65 18.1 55 12.5 70 70 S 15 24 29.65 1004 10 16 N/A
10:35 pm 22:35 Clear 65 18.1 54 12.3 69 69 SSE 13 20 29.65 1004 10 16 N/A
10:55 pm 22:55 Clear 65 18.2 54 12.3 69 69 S 15 24 29.65 1004 10 16 N/A
11:15 pm 23:15 Clear 64 17.8 54 12.2 70 70 S 15 24 29.65 1004 10 16 N/A
11:35 pm 23:35 Clear 64 17.8 54 12.2 70 70 S 14 22 29.65 1004 10 16 N/A
11:55 pm 23:55 Clear 63 17.4 54 12.2 72 72 S 16 26 29.65 1004 10 16 N/A

Powered by AerisWeather